TimeEST,TemperatureF,Dew PointF,Humidity,Sea Level PressureIn,VisibilityMPH,Wind Direction,Wind SpeedMPH,Gust SpeedMPH,PrecipitationIn,Events,Conditions,WindDirDegrees,DateUTC
12:53 AM,43.0,32.0,65,30.14,8.0,SSE,5.8,-,N/A,,Overcast,160,2012-11-30 05:53:00
1:53 AM,43.0,32.0,65,30.13,8.0,SE,4.6,-,N/A,,Overcast,140,2012-11-30 06:53:00
2:53 AM,42.1,32.0,67,30.13,8.0,SE,4.6,-,N/A,,Overcast,130,2012-11-30 07:53:00
3:53 AM,43.0,32.0,65,30.12,8.0,SSE,4.6,-,N/A,,Overcast,150,2012-11-30 08:53:00
4:53 AM,43.0,32.0,65,30.10,8.0,SE,4.6,-,N/A,,Overcast,140,2012-11-30 09:53:00
5:53 AM,43.0,32.0,65,30.12,8.0,SE,4.6,-,N/A,,Overcast,140,2012-11-30 10:53:00
6:53 AM,42.1,32.0,67,30.12,8.0,SE,5.8,-,N/A,,Overcast,130,2012-11-30 11:53:00
7:53 AM,41.0,32.0,70,30.11,8.0,ESE,6.9,-,N/A,,Overcast,120,2012-11-30 12:53:00
8:53 AM,42.1,32.0,67,30.12,7.0,SE,4.6,-,N/A,,Overcast,130,2012-11-30 13:53:00
9:53 AM,43.0,32.0,65,30.12,7.0,SE,4.6,-,N/A,,Overcast,130,2012-11-30 14:53:00
10:53 AM,43.0,32.0,65,30.13,8.0,SSE,6.9,-,N/A,,Overcast,150,2012-11-30 15:53:00
11:53 AM,45.0,32.0,60,30.12,8.0,SE,4.6,-,N/A,,Overcast,130,2012-11-30 16:53:00
12:53 PM,46.0,33.1,61,30.10,8.0,ESE,4.6,-,N/A,,Mostly Cloudy,120,2012-11-30 17:53:00
1:53 PM,46.9,32.0,56,30.10,8.0,East,3.5,-,N/A,,Overcast,100,2012-11-30 18:53:00
2:53 PM,48.9,33.1,54,30.09,7.0,East,6.9,-,N/A,,Partly Cloudy,90,2012-11-30 19:53:00
3:53 PM,50.0,33.1,52,30.10,8.0,SE,8.1,-,N/A,,Overcast,130,2012-11-30 20:53:00
4:53 PM,46.9,32.0,56,30.14,8.0,Calm,Calm,-,N/A,,Mostly Cloudy,0,2012-11-30 21:53:00
5:53 PM,45.0,33.1,63,30.15,7.0,NE,5.8,-,N/A,,Clear,50,2012-11-30 22:53:00
6:53 PM,41.0,32.0,70,30.19,5.0,NE,6.9,-,N/A,,Haze,50,2012-11-30 23:53:00
7:53 PM,39.9,33.1,77,30.18,5.0,ENE,10.4,-,N/A,,Haze,70,2012-12-01 00:53:00
8:53 PM,39.0,33.1,79,30.16,5.0,East,11.5,-,N/A,,Haze,90,2012-12-01 01:53:00
9:53 PM,37.0,32.0,82,30.17,4.0,East,5.8,-,N/A,,Haze,80,2012-12-01 02:53:00
10:53 PM,36.0,32.0,86,30.16,4.0,East,8.1,-,N/A,,Clear,100,2012-12-01 03:53:00
11:53 PM,36.0,30.9,82,30.16,5.0,ESE,8.1,-,N/A,,Haze,110,2012-12-01 04:53:00